Location: Shenandoah County Park
(38.9356°N, 78.4524°W)
Time: 14:38:01
(UTC-05:00)

Vanguard 2 Rocket - Pass Details

Date: 06 December 2023
Orbit: 555 x 3309 km, 32.9° (Epoch: 03 March)

Event Time Altitude Azimuth Distance (km) Brightness Sun altitude
Rises 20:16:45 0° 283° (WNW) 7,297 12.4 -39.2°
Reaches altitude 10° 20:22:16 10° 277° (W) 6,228 11.8 -40.3°
Maximum altitude 20:38:58 38° 218° (SW) 3,659 9.9 -43.5°
Enters shadow 20:45:04 29° 179° (S) 3,690 9.8 -44.7°
Drops below altitude 10° 20:50:51 10° 156° (SSE) 4,453 - -45.8°
Sets 20:54:05 0° 147° (SSE) 5,102 - -46.4°
